Location: *
(32.3758°S, 63.1185°E)
Time: 04:26:52
(UTC+00:00)

Cosmos 1140 Rocket - Visible Passes

Search period start: 21 February 2024 00:00
Search period end: 02 March 2024 00:00
Orbit: 743 x 764 km, 74.1° (Epoch: 20 February)

Date Brightness Start Highest point End Pass type
(mag) Time Alt. Az. Time Alt. Az. Time Alt. Az.
21 Feb 3.9 00:25:25 10° N 00:30:36 67° ENE 00:35:52 10° SSE visible
21 Feb 5.1 23:44:49 10° NNE 23:49:26 32° E 23:54:06 10° SE visible
22 Feb 6.1 23:05:17 10° NE 23:08:23 16° E 23:11:31 10° ESE visible
23 Feb 3.9 00:44:37 10° NW 00:49:39 46° WSW 00:54:44 10° S visible
24 Feb 3.5 00:04:17 18° NNW 00:08:17 87° ENE 00:13:36 10° SSE visible
24 Feb 4.5 23:24:34 25° NNE 23:27:04 42° ENE 23:32:02 10° SSE visible
25 Feb 5.0 01:05:20 10° WNW 01:08:58 19° WSW 01:12:38 10° SSW visible
25 Feb 5.5 22:44:46 19° ENE 22:45:58 21° E 22:49:51 10° SE visible
26 Feb 4.2 00:24:46 22° WNW 00:27:24 36° WSW 00:32:15 10° S visible
26 Feb 3.4 23:44:53 54° NW 23:45:59 72° WSW 23:51:17 10° SSE visible
27 Feb 4.0 23:04:56 56° E 23:04:56 56° E 23:09:53 10° SSE visible
28 Feb 5.3 00:44:56 12° W 00:46:48 15° WSW 00:49:40 10° SSW visible
28 Feb 5.5 22:24:54 24° ESE 22:24:54 24° ESE 22:27:59 10° SE visible
29 Feb 4.5 00:04:54 28° WSW 00:05:10 28° WSW 00:09:40 10° S visible
29 Feb 6.4 21:44:49 10° ESE 21:44:49 10° ESE 21:44:58 10° ESE visible
29 Feb 4.1 23:24:49 46° SSW 23:24:49 46° SSW 23:28:53 10° S visible
01 Mar 4.9 22:44:40 34° SSE 22:44:40 34° SSE 22:47:38 10° SSE visible
